Wind_Speed
18 12 13 15 15 18 20 20 19 18 17 15 14 14 15 15 12 11 11 11 13 13 16 17 16 16 17 15 14 16 18 16 15 14 13 15 19 22 23 23 23 24 24 26 28 30 30 29 29 29 29 30 30 29 29 31 31 31 30 28 28 28 27 28 27 25 25 24 23 23 23 23 24 24 22 20 18 16 16 16 16 18 17 16 17 16
18 13 16 19 19 20 20 21 19 19 20 17 12 12 14 14 13 13 15 14 12 10 12 15 17 16 16 16 17 18 17 16 17 16 14 16 19 21 23 23 21 21 24 26 28 30 30 30 30 30 29 31 31 31 31 31 32 32 31 29 29 29 28 29 28 26 26 26 25 24 24 22 21 23 24 22 19 18 16 16 18 19 18 17 17 16
15 15 19 21 19 19 19 20 21 20 20 16 11 11 11 11 12 14 16 16 12 8 9 14 15 14 15 16 16 16 16 16 19 18 15 16 17 20 23 22 22 23 25 27 29 32 32 31 31 30 30 32 32 32 32 31 32 32 32 31 30 30 30 30 29 28 26 26 25 23 23 21 19 20 21 20 19 18 17 16 19 20 19 18 18 17
12 14 19 20 18 20 19 20 21 19 16 14 11 11 10 11 12 11 12 16 14 9 10 14 13 11 13 14 14 16 17 16 19 19 17 16 17 18 22 22 23 26 27 28 30 32 32 32 32 32 31 32 32 32 33 33 33 33 34 33 32 31 31 30 30 29 27 26 25 22 21 20 19 17 18 18 18 18 18 17 19 20 19 18 18 17
14 13 17 21 19 20 20 19 19 16 12 15 16 13 11 14 15 11 11 15 15 13 13 12 10 10 13 15 14 15 17 15 18 20 17 16 16 17 23 24 25 28 29 30 32 33 33 34 33 32 31 32 33 34 34 35 35 35 34 34 33 32 31 30 30 30 27 26 25 24 21 20 19 18 17 19 19 19 20 20 20 20 19 19 20 18
16 14 16 21 20 20 20 17 18 16 11 14 19 18 15 16 16 14 14 12 10 12 13 12 11 9 12 17 16 13 15 16 18 19 18 16 17 18 23 26 28 28 29 30 32 34 34 34 33 32 31 32 33 35 35 36 36 35 35 35 34 32 32 31 30 29 27 27 27 26 25 24 23 21 20 21 21 20 21 20 20 20 19 19 19 19
13 17 15 18 21 22 20 17 18 18 12 11 15 19 20 19 17 16 16 12 8 8 11 14 13 8 10 15 16 15 17 18 18 18 18 18 17 19 21 24 27 28 28 29 31 33 35 35 35 34 34 34 34 35 35 35 36 36 36 37 37 34 32 32 32 31 28 27 28 28 28 27 26 25 23 23 22 20 20 19 18 19 19 19 19 19
14 21 17 17 20 19 17 15 17 18 13 9 12 17 20 21 19 17 16 12 9 8 10 14 15 11 10 12 15 18 19 18 16 14 16 17 17 19 20 22 25 27 29 31 32 33 35 37 38 38 37 36 35 34 34 35 36 37 38 39 39 37 33 32 33 33 30 29 29 30 30 30 27 25 23 23 22 19 18 18 18 18 19 20 19 19
16 21 20 19 18 15 15 15 16 18 15 11 11 13 15 18 20 19 15 11 10 10 10 13 15 12 9 9 13 17 19 16 16 15 16 15 16 17 19 22 25 27 30 32 32 33 35 38 39 40 39 37 34 33 34 36 36 37 39 40 41 41 37 33 32 33 32 33 33 31 30 32 30 26 22 21 22 22 21 19 18 19 18 19 20 19
14 19 21 18 15 13 15 16 17 18 15 12 13 13 11 12 14 16 14 11 11 11 12 14 16 12 8 9 12 14 15 15 15 17 16 16 17 16 18 21 24 27 29 30 31 33 36 38 39 39 38 36 35 34 35 35 35 36 38 40 40 42 41 38 36 36 36 37 37 33 32 35 34 29 24 20 20 23 25 23 21 21 21 20 20 19
14 19 20 17 14 14 15 16 17 19 16 13 13 11 9 8 9 10 10 10 11 12 15 18 19 15 10 9 11 12 14 15 14 14 14 16 19 20 21 23 23 25 27 29 30 31 33 35 35 35 36 37 36 35 34 34 34 35 38 40 41 41 43 43 43 42 41 40 40 36 34 35 37 34 29 24 22 22 25 27 25 24 24 23 22 20
18 16 14 15 18 17 15 15 16 18 17 14 12 9 8 7 8 8 9 10 11 12 14 18 21 19 13 10 10 12 16 18 16 15 16 17 20 25 26 24 21 23 26 27 28 30 31 32 33 34 36 37 37 35 35 34 34 35 38 41 41 42 43 43 44 44 43 42 41 39 36 36 37 36 33 31 28 25 25 28 28 27 26 24 23 22
18 16 13 15 21 20 16 13 13 15 15 13 11 10 9 8 8 9 10 10 12 11 11 16 19 18 15 12 13 14 15 17 17 16 19 22 25 29 28 23 22 23 25 27 28 29 31 33 34 36 37 38 39 38 38 37 36 36 38 41 42 42 43 43 44 44 44 44 42 41 40 38 37 37 36 35 33 30 28 27 27 28 28 27 26 25
13 16 18 17 16 20 18 12 11 12 14 14 12 11 10 9 9 10 11 10 11 11 12 15 15 14 14 12 16 19 16 15 17 19 23 26 28 29 27 22 22 23 24 27 28 29 31 34 35 36 37 39 40 41 41 40 38 38 39 42 43 43 43 43 44 44 44 44 42 41 40 39 38 38 37 37 35 32 31 29 28 28 28 28 28 28
14 13 18 19 13 19 22 16 13 12 13 14 13 12 11 9 9 9 9 10 10 9 13 15 12 12 11 8 13 20 20 19 19 21 24 26 26 26 27 24 23 24 25 26 28 30 32 34 35 35 37 38 40 41 41 41 40 40 41 44 44 44 44 43 43 44 44 44 43 41 40 40 39 39 38 38 37 35 34 32 31 31 29 27 27 27
17 13 16 21 16 19 23 19 16 14 12 13 12 12 12 11 9 6 8 10 9 8 10 12 10 9 8 7 8 13 18 21 20 19 21 22 22 24 28 28 26 24 23 23 25 30 32 33 35 36 37 38 38 39 41 42 43 42 43 45 46 45 45 45 44 44 44 44 43 42 41 40 40 40 39 38 38 37 36 35 33 33 33 29 26 25
14 12 15 23 21 21 23 21 20 15 10 10 12 13 12 12 10 7 7 8 7 8 8 9 10 8 7 8 9 9 13 19 21 19 18 19 22 23 25 28 27 24 22 22 26 30 32 33 35 37 37 38 38 39 41 44 46 47 46 47 47 46 46 46 45 45 45 44 44 43 43 41 41 41 40 40 39 39 38 37 36 35 34 33 29 26
11 10 14 24 23 21 24 24 22 19 13 9 12 14 11 11 11 8 7 6 6 8 7 8 12 11 8 7 9 13 14 15 19 20 18 19 22 23 23 26 28 27 25 26 29 31 31 33 35 36 37 38 40 42 43 44 45 47 48 48 47 47 47 46 46 46 46 45 45 44 43 43 42 42 41 41 40 39 39 38 38 37 36 35 34 30
10 9 12 22 23 20 21 21 18 20 21 14 10 13 11 10 11 8 7 7 8 8 7 9 11 10 9 8 8 14 16 15 16 18 19 20 21 23 25 28 30 29 26 25 26 26 29 33 35 36 37 38 40 41 41 42 42 43 46 48 47 47 46 46 47 47 47 47 46 46 45 44 43 43 42 41 40 40 40 40 39 39 38 36 35 33
10 8 9 17 22 19 15 15 14 16 20 17 12 12 11 9 9 9 8 7 7 7 7 9 10 8 9 9 9 11 14 15 14 14 15 17 19 22 25 26 28 28 26 25 23 24 29 33 35 36 37 36 37 38 38 39 41 41 43 46 46 46 46 46 47 48 48 48 48 47 46 45 45 44 43 43 42 41 41 41 40 39 38 37 36 35
9 8 8 12 19 18 13 13 16 16 17 16 13 12 12 10 8 9 9 8 7 7 6 7 7 7 6 8 9 9 12 14 15 14 12 13 17 21 22 22 24 25 23 22 24 28 31 32 33 34 34 33 33 35 36 38 41 41 41 44 46 46 46 47 47 48 48 49 49 49 48 47 46 45 44 44 43 43 43 41 40 40 38 37 37 36
7 7 9 10 14 15 14 17 20 21 19 16 13 12 12 12 10 10 10 10 9 7 6 5 5 3 5 3 5 8 10 11 13 13 13 13 17 19 21 21 23 25 24 24 24 25 26 27 29 30 30 30 32 34 36 37 39 40 41 42 44 44 45 46 47 48 48 49 49 50 49 48 47 46 45 45 44 45 44 42 42 41 40 39 38 37
4 4 9 10 12 14 17 20 21 22 22 19 16 14 12 12 12 10 8 9 9 9 7 6 5 3 8 5 4 4 5 9 12 12 11 13 16 16 19 21 23 26 27 26 26 24 22 23 25 27 29 30 31 33 35 36 37 40 41 40 41 42 45 45 46 47 49 49 49 50 49 49 48 47 46 46 46 46 46 44 43 42 41 41 40 38
3 4 9 9 10 13 16 19 19 21 21 18 16 16 14 14 13 10 8 6 8 10 9 6 6 4 8 7 5 4 2 7 12 12 11 13 14 14 16 18 20 24 23 21 21 20 21 22 22 25 28 30 31 32 34 35 36 37 39 39 40 42 43 43 42 44 47 49 49 49 50 49 49 49 48 48 48 47 47 45 43 43 43 42 41 40
4 9 10 8 9 12 13 15 16 18 17 13 14 18 18 18 18 13 9 6 6 10 12 9 7 4 8 7 4 5 7 8 11 14 13 12 13 15 14 11 11 13 15 14 15 15 18 21 23 27 30 32 33 32 33 35 34 35 37 38 39 39 40 40 39 40 44 48 49 49 50 50 50 51 50 50 49 48 47 46 44 44 45 44 43 41
5 10 10 9 12 12 11 11 11 15 14 11 15 21 22 22 21 15 9 7 7 9 10 9 6 5 9 8 7 7 8 7 10 14 13 12 12 10 10 12 12 8 8 11 14 14 17 20 22 27 30 31 31 30 31 33 33 33 34 36 37 36 36 38 38 38 40 45 47 49 50 51 51 52 51 51 50 49 47 46 45 43 44 45 44 42
5 8 11 15 14 6 2 3 4 10 15 16 19 23 24 24 22 16 11 9 8 7 8 8 6 8 11 10 8 9 9 7 8 12 14 14 13 13 13 10 8 7 7 9 12 13 15 18 20 24 26 26 27 28 29 31 31 32 33 34 35 34 35 37 38 38 39 41 44 47 49 50 50 51 51 51 50 49 48 47 44 41 40 42 44 43
6 8 12 19 18 9 4 9 9 6 14 18 22 23 23 24 25 20 14 12 10 8 8 9 7 5 11 12 9 10 10 8 7 10 13 14 12 12 11 7 6 10 11 10 11 12 14 16 18 20 21 22 24 26 27 28 30 31 32 33 33 33 34 35 37 38 39 39 42 45 48 48 48 49 49 49 49 48 48 48 44 40 38 39 41 43
6 9 13 18 18 12 6 7 10 7 9 12 18 24 25 24 26 24 19 15 13 9 7 11 13 9 7 12 12 10 9 8 7 6 8 9 7 6 6 4 2 7 13 12 10 10 12 15 17 18 20 21 23 24 25 26 28 29 30 31 32 33 33 34 36 38 38 39 42 46 47 46 46 47 47 47 47 47 48 47 45 41 39 39 40 41
4 6 10 15 18 14 10 8 9 7 7 8 12 18 23 24 25 24 22 19 17 13 8 9 15 14 9 10 12 10 7 5 3 1 3 3 3 4 3 1 4 4 6 10 10 9 9 12 15 16 18 19 21 23 25 25 26 28 29 29 31 33 33 33 36 38 38 39 42 46 45 43 44 46 47 47 46 47 47 46 45 44 42 40 38 38
3 3 3 7 12 13 12 9 8 7 6 7 7 10 17 24 24 22 21 20 17 16 12 8 9 11 9 6 5 6 4 2 3 3 3 4 4 4 4 4 4 5 2 3 6 7 8 10 11 11 12 14 16 20 23 25 26 26 27 29 30 32 32 33 35 37 39 40 41 42 44 44 45 45 46 46 46 46 47 46 46 45 44 43 40 38
5 2 2 4 7 10 12 11 10 8 7 8 9 10 12 15 17 17 16 15 13 13 12 9 7 7 5 3 2 1 1 4 5 6 8 9 8 7 7 7 6 5 5 3 2 3 7 10 10 9 9 10 11 14 18 22 25 26 27 28 29 29 31 33 34 36 39 39 38 40 43 46 47 46 46 47 45 46 46 46 47 46 46 46 45 43
3 4 3 7 6 9 14 14 11 9 8 10 11 12 10 9 11 13 11 11 11 10 8 8 7 6 5 4 6 6 6 7 7 7 8 7 7 8 8 8 7 6 5 4 5 6 6 7 8 8 8 8 10 12 14 17 22 26 27 26 27 28 30 33 34 35 37 38 38 40 43 45 46 46 47 47 46 45 45 45 46 46 47 47 46 45
4 5 4 5 6 9 11 10 10 12 11 9 8 10 12 12 12 12 11 12 12 10 8 7 6 5 6 7 8 8 7 5 4 4 5 4 5 8 9 10 9 8 7 6 6 8 6 4 4 5 7 8 9 10 12 15 20 23 23 24 27 29 31 33 33 34 37 39 39 40 42 44 45 45 45 45 45 45 45 45 45 45 45 45 45 45
4 4 4 3 6 8 8 7 10 13 11 8 8 10 13 15 15 15 15 14 14 13 13 12 9 7 6 5 4 4 3 3 4 6 6 6 8 9 11 12 11 10 9 8 6 5 4 3 4 6 8 8 9 9 10 12 16 19 21 23 27 30 32 33 34 34 36 39 40 41 42 44 44 43 43 43 44 44 44 44 44 44 44 43 42 43
5 5 5 4 5 6 6 8 9 6 4 6 8 6 7 11 16 17 16 16 15 14 13 12 12 10 7 6 4 2 3 6 7 8 9 11 14 15 16 17 15 13 11 8 7 6 7 10 12 12 12 11 10 10 10 11 13 16 19 22 25 29 32 33 35 36 36 39 42 43 43 44 44 43 43 42 42 43 43 43 43 43 43 41 38 37
6 6 6 6 6 6 6 8 7 3 2 5 8 6 5 8 11 11 12 13 14 13 9 7 7 5 3 4 5 4 5 6 6 9 14 18 18 16 16 16 15 12 8 7 7 8 11 14 14 13 14 14 13 11 11 12 12 15 19 21 24 27 30 33 36 38 38 39 40 41 41 42 43 43 43 42 42 43 43 43 43 42 42 41 37 34
8 6 6 6 7 7 7 9 9 8 7 7 8 8 8 9 8 6 7 8 9 10 8 5 4 4 5 7 7 4 3 4 7 9 10 10 9 8 9 11 9 6 7 8 9 11 11 10 11 12 14 15 15 14 13 13 13 15 19 22 24 26 29 33 36 39 40 38 37 37 38 40 42 42 42 42 42 42 41 41 41 40 40 41 38 35
9 7 6 7 8 9 10 10 10 10 7 6 9 12 10 7 6 5 6 7 5 4 5 6 7 7 7 7 5 3 3 6 8 4 5 9 11 11 11 11 11 10 9 9 10 10 11 14 17 17 16 15 14 13 13 14 15 16 19 22 24 25 29 33 34 35 37 37 35 36 37 38 39 40 41 41 41 40 39 39 39 39 38 39 38 37
10 7 7 9 9 10 10 9 9 7 2 1 3 8 8 6 5 7 9 7 4 5 3 2 5 4 2 4 3 4 6 7 6 5 10 12 12 11 11 11 11 11 11 11 10 12 15 17 17 14 10 9 10 9 9 11 14 16 19 21 23 25 27 30 30 29 30 32 32 33 36 36 36 37 38 39 38 38 37 37 37 37 37 36 35 35
9 7 7 9 11 11 11 10 9 6 2 2 3 6 6 5 6 7 6 2 6 6 4 4 4 3 4 4 4 3 5 7 11 14 16 15 13 12 11 11 11 11 11 11 12 15 14 12 10 9 8 9 13 12 10 10 11 14 17 19 22 23 23 23 25 26 26 29 30 30 32 34 34 35 35 35 35 35 35 35 35 35 35 33 31 31
9 8 7 8 10 11 11 9 10 7 1 4 2 5 5 4 5 3 4 8 8 6 5 6 6 7 7 7 6 7 9 12 15 18 17 16 15 14 13 12 11 11 11 11 12 12 10 8 7 8 7 8 9 9 9 9 10 11 14 17 18 19 17 17 20 24 25 27 28 27 27 29 31 33 33 33 32 32 32 32 30 30 31 29 28 28
5 6 8 9 8 9 10 11 11 7 4 10 5 3 3 1 1 4 9 11 9 8 9 8 8 8 9 9 8 9 12 14 15 15 16 16 15 14 13 12 11 10 10 9 10 9 8 8 8 8 7 7 6 4 3 6 10 11 11 13 13 13 14 15 17 20 23 25 26 26 25 26 27 30 30 30 30 30 30 29 28 27 28 28 27 27
3 5 7 8 6 7 10 9 5 1 6 10 6 2 5 7 7 9 11 10 9 11 12 10 10 11 12 11 11 11 12 14 14 13 14 14 13 13 13 11 10 9 8 8 8 9 8 8 7 6 6 7 8 8 5 3 7 9 8 10 13 13 13 14 15 17 19 21 23 23 23 22 23 25 26 26 27 27 27 27 27 26 27 28 27 26
2 2 4 4 3 5 7 5 4 6 6 6 5 6 8 9 9 10 11 11 11 12 14 14 14 15 15 14 12 12 12 13 14 13 13 13 13 12 12 12 10 9 9 8 8 8 7 5 6 5 5 6 6 7 8 7 5 6 9 13 15 14 13 12 13 14 15 16 18 19 20 19 19 20 20 20 21 23 23 24 24 25 25 25 24 24
2 3 4 5 5 7 10 11 10 7 4 5 7 9 11 12 12 12 12 12 13 14 16 16 17 19 19 17 16 14 13 13 15 14 12 12 12 11 11 11 11 9 8 7 7 6 5 4 4 4 3 4 5 2 7 8 6 5 8 10 9 11 14 13 11 12 13 13 13 15 17 17 17 17 18 17 18 19 20 20 21 22 22 22 22 23
6 7 7 7 6 6 8 9 9 7 5 7 10 12 11 11 12 13 13 13 14 16 16 17 19 20 20 19 18 17 15 13 13 13 12 11 11 10 10 10 9 8 7 7 6 5 3 3 3 3 2 2 4 3 1 3 3 2 3 4 4 8 14 14 11 11 11 11 11 12 14 15 15 15 16 16 16 17 17 17 18 19 20 21 21 22
3 2 6 9 9 9 10 12 13 13 14 13 13 14 13 11 10 12 13 13 15 16 16 16 17 19 20 19 18 18 17 14 11 11 11 10 9 9 9 9 8 7 6 5 4 3 2 1 1 1 1 2 2 4 4 3 3 2 1 2 2 4 8 10 9 9 9 9 9 9 10 12 13 14 14 14 15 15 15 16 17 17 19 19 20 20
5 3 5 8 9 10 12 15 16 17 17 16 17 17 14 11 11 12 13 14 16 16 17 17 17 17 19 20 19 18 17 15 13 11 9 8 7 7 7 8 7 6 4 3 2 2 1 2 2 2 2 3 4 5 5 5 4 4 3 2 2 3 3 5 7 7 7 7 7 7 8 9 10 12 12 12 13 14 15 16 16 16 16 16 17 19
9 8 8 8 8 9 10 12 13 12 11 11 14 15 12 9 11 13 14 15 16 16 18 20 20 19 20 20 20 18 16 14 12 10 8 6 5 5 4 4 4 4 3 1 1 1 1 2 3 3 3 4 6 7 7 6 6 6 5 5 5 5 4 5 6 7 7 7 7 7 7 7 7 9 9 9 11 12 13 15 16 17 18 16 15 17
11 10 10 9 10 11 12 14 14 12 11 13 17 18 15 12 14 16 16 17 17 17 18 19 20 22 23 22 21 18 16 14 10 8 6 5 4 4 3 1 1 2 2 3 2 2 3 4 4 4 4 6 7 7 7 7 8 7 6 6 6 6 6 7 7 6 6 8 10 10 9 8 8 8 9 8 9 10 11 11 11 12 16 19 19 20
Wind_Direction
194 200 209 211 211 207 209 213 216 226 234 228 221 219 219 223 226 218 216 200 190 204 211 215 221 216 210 213 217 205 197 206 208 208 207 197 194 186 185 192 197 205 203 189 185 185 184 184 183 182 182 183 184 186 187 187 189 189 189 191 192 191 192 193 193 194 196 197 200 202 204 207 210 211 209 208 208 210 211 207 211 223 224 219 224 225
199 213 216 210 214 212 209 214 217 223 232 235 232 231 224 222 222 211 207 198 186 207 215 211 222 221 212 212 217 210 199 204 211 206 204 205 199 186 185 191 193 204 205 191 183 183 184 185 184 182 182 183 184 185 187 188 189 190 190 192 192 191 192 194 194 194 196 198 200 202 204 205 209 212 213 212 210 210 211 208 210 222 225 219 225 227
204 220 219 211 212 216 212 211 217 222 227 232 230 234 233 219 223 218 206 200 190 202 224 219 225 226 220 218 217 212 204 201 206 208 205 206 204 189 182 184 188 202 206 192 183 182 183 185 185 182 182 184 184 185 187 189 190 191 191 192 194 192 192 194 195 195 197 199 200 201 203 203 205 212 214 213 213 212 211 212 215 222 224 222 226 227
207 218 217 213 209 213 216 211 212 219 224 229 223 224 232 219 219 220 205 202 198 205 233 231 229 228 226 226 224 225 222 202 198 209 209 205 207 190 176 180 191 200 203 193 185 182 182 184 185 184 183 183 184 185 187 189 190 192 193 193 195 194 194 194 196 198 198 198 198 198 201 202 204 209 213 213 215 215 212 212 220 228 226 225 230 228
214 210 206 212 208 208 215 212 209 214 218 225 226 222 226 224 223 227 219 207 199 209 228 235 238 230 224 226 222 225 227 207 195 208 213 208 207 185 172 183 196 201 202 195 185 182 182 184 186 186 185 184 185 186 187 189 190 192 194 194 195 196 196 195 199 201 200 199 199 197 199 202 202 206 210 211 212 214 213 211 219 230 228 224 229 230
221 212 198 205 207 206 212 212 207 212 216 218 224 225 228 233 230 233 236 221 208 215 214 217 237 233 217 224 224 218 221 208 194 203 213 208 203 189 180 187 193 197 203 198 187 182 183 184 185 186 186 186 187 188 189 190 191 192 194 194 195 197 198 197 199 202 201 201 203 202 201 203 203 203 206 210 209 210 215 213 214 226 229 225 227 229
222 217 202 200 205 205 210 216 207 209 222 220 215 218 225 237 240 237 236 226 221 231 216 211 228 241 223 222 224 222 224 214 194 197 210 205 199 198 193 189 188 190 197 200 192 184 182 183 185 187 188 189 189 190 189 189 191 193 195 197 198 199 200 199 199 202 202 203 206 209 208 209 209 207 206 212 211 209 216 217 211 220 229 229 227 224
216 214 206 199 205 205 207 215 206 202 220 227 212 210 216 228 235 237 238 234 231 245 242 224 222 236 235 222 221 222 226 216 193 194 210 204 198 203 201 192 188 189 193 197 193 187 185 184 186 188 189 190 190 189 188 189 191 194 199 205 206 205 203 201 203 205 205 206 209 213 214 214 214 211 209 215 216 210 213 217 213 215 224 233 231 222
208 213 209 198 203 211 207 209 202 200 216 227 220 215 213 219 225 228 235 240 238 242 247 232 222 232 236 225 223 225 225 211 192 201 215 209 200 204 209 198 188 190 195 196 193 188 188 188 188 189 190 190 189 188 189 189 191 196 203 210 212 211 208 205 205 206 209 212 212 213 214 216 216 213 210 214 220 217 213 214 214 213 215 229 236 226
206 210 215 207 203 214 209 202 201 204 213 221 222 221 214 216 219 222 228 234 238 240 240 231 227 237 241 227 223 224 224 211 201 209 210 207 199 199 217 211 191 189 194 195 194 192 191 191 190 189 189 188 188 190 191 190 191 195 202 209 213 214 214 214 213 213 215 217 215 214 216 219 219 216 212 211 217 222 222 218 215 214 212 219 233 231
218 203 213 219 208 213 211 200 204 210 209 211 219 214 206 214 217 219 224 228 235 238 234 230 230 236 241 231 222 221 221 213 210 207 196 200 196 192 213 217 197 190 194 194 195 195 194 193 191 189 187 187 188 189 190 190 190 192 200 209 214 216 217 218 219 220 221 221 219 218 219 221 223 222 218 214 213 218 224 224 221 221 220 218 227 233
228 206 204 215 206 207 213 205 203 207 203 205 213 201 193 205 209 215 214 216 231 235 227 226 229 236 240 233 226 226 222 217 215 203 192 200 197 191 206 218 205 195 194 194 195 195 195 194 192 190 189 188 187 188 189 191 191 191 200 210 214 216 218 219 221 221 222 223 222 221 222 224 226 226 224 223 219 216 222 228 226 225 227 226 226 230
225 217 201 201 202 204 211 207 195 196 198 201 206 198 198 197 193 206 206 207 227 232 226 222 221 230 240 236 233 235 227 219 220 209 199 205 202 191 195 211 215 204 196 195 195 194 193 193 193 191 190 189 186 187 189 190 190 191 200 211 215 216 218 218 220 222 222 223 224 223 225 226 227 227 228 228 226 222 224 229 228 225 227 230 230 228
213 218 208 198 197 201 208 208 189 188 193 196 200 196 198 197 191 202 205 211 225 225 223 222 219 228 240 234 227 233 234 224 220 211 206 212 208 190 183 199 218 212 199 196 194 193 193 194 194 193 191 190 188 189 190 190 191 192 199 211 216 217 219 219 220 222 223 223 224 224 225 226 227 228 228 229 229 226 227 229 230 230 229 230 234 233
205 213 207 200 192 191 203 215 200 186 190 196 201 201 206 211 204 203 205 212 222 220 212 213 218 229 233 231 222 225 227 226 228 216 207 213 210 187 175 190 216 216 202 196 194 194 195 194 193 193 193 192 191 190 190 191 191 192 200 211 216 217 219 220 220 222 223 224 224 225 225 225 225 226 227 228 230 229 229 230 232 236 233 229 232 237
212 219 203 199 198 189 196 212 208 193 190 194 199 207 212 215 218 222 221 221 224 226 211 203 216 230 231 240 236 228 220 216 224 223 208 207 208 193 180 183 204 213 200 196 200 197 195 193 191 192 193 193 193 192 191 192 192 194 201 211 216 218 218 220 221 222 224 224 224 224 225 224 225 226 226 227 229 230 231 231 233 237 238 233 229 232
213 223 200 192 198 197 194 202 208 203 192 184 197 211 210 212 228 240 232 230 231 232 220 201 209 218 224 226 215 223 228 212 210 218 212 201 201 200 189 181 194 209 199 197 208 203 194 192 191 192 193 192 193 194 193 194 197 200 205 211 215 217 219 220 220 222 223 224 224 225 225 225 225 226 226 227 229 230 232 233 234 237 239 239 233 229
214 225 204 190 194 195 191 197 207 210 207 190 193 205 204 210 228 243 235 222 218 227 226 211 209 205 207 216 198 202 221 216 205 208 211 205 202 204 197 185 191 203 200 197 206 203 192 191 192 192 194 194 194 196 196 196 198 202 207 212 216 217 218 219 220 221 222 223 224 225 225 225 225 226 227 228 230 231 232 234 235 237 238 240 239 233
222 228 205 189 190 187 184 197 206 208 214 218 203 195 199 207 210 216 230 221 211 219 220 219 222 211 202 211 204 197 205 212 204 200 208 209 204 205 203 194 191 196 197 197 203 203 194 191 193 193 195 197 196 196 196 195 196 200 206 212 217 219 219 219 219 220 221 222 224 225 225 224 225 226 227 228 229 231 233 233 235 237 237 238 240 238
223 231 208 181 180 178 179 198 203 196 207 222 220 200 200 215 209 201 215 225 222 221 215 216 220 221 216 212 205 191 191 203 202 196 209 211 198 199 202 196 189 191 197 198 200 206 202 194 194 195 195 196 197 195 195 195 196 199 204 210 215 218 220 221 220 221 221 221 223 224 225 225 225 226 227 229 230 231 233 234 235 237 237 237 238 239
224 233 223 171 170 182 187 199 205 193 192 207 216 203 196 205 210 208 210 216 225 230 223 220 219 214 206 202 202 187 179 195 202 193 201 215 201 192 195 194 185 186 197 204 203 205 204 197 194 196 195 194 196 195 194 196 198 199 202 207 212 216 218 220 221 222 223 222 223 224 225 225 226 226 227 229 231 232 234 235 236 237 237 237 238 238
227 236 230 183 175 198 200 195 205 203 194 197 207 205 197 196 201 208 206 203 216 232 232 237 240 183 116 136 202 197 181 185 199 196 189 204 206 191 188 191 186 182 191 204 208 205 203 200 195 193 193 193 194 196 196 197 198 198 200 205 208 211 214 217 220 222 223 223 223 224 225 226 226 227 228 229 231 234 235 235 236 237 238 238 238 237
236 276 245 207 190 207 205 194 203 209 202 199 207 208 202 198 201 207 205 194 202 217 224 238 245 128 97 113 152 160 190 188 190 197 189 192 203 194 185 189 187 185 190 199 205 202 202 205 197 190 191 193 195 197 197 198 199 200 201 202 204 207 211 214 216 220 223 223 223 224 225 226 227 228 229 230 231 234 235 236 236 238 239 238 238 237
193 272 250 226 198 200 203 194 197 210 208 202 206 209 208 205 202 209 211 192 193 204 204 212 229 166 114 118 114 97 224 202 175 184 196 191 191 189 186 187 185 183 185 196 205 198 192 196 194 189 190 193 196 198 198 199 201 201 201 201 203 206 209 210 209 214 221 224 224 224 224 225 226 228 229 230 231 233 235 236 236 238 240 239 238 237
205 224 227 232 208 192 195 191 191 204 211 208 203 204 211 210 203 208 215 206 202 201 195 198 217 183 121 125 164 175 191 188 160 167 184 181 175 181 179 157 139 152 165 186 206 201 188 189 190 188 191 195 197 198 199 201 201 202 202 203 204 205 206 206 204 206 216 224 225 224 225 225 225 227 229 230 231 233 235 235 235 237 240 241 239 238
249 219 211 222 213 192 190 196 191 194 202 212 206 201 207 211 206 204 208 212 210 194 194 206 199 132 119 144 172 161 153 156 150 153 158 151 145 146 131 101 90 114 157 182 197 197 191 191 190 189 193 197 197 198 200 202 202 204 205 205 206 205 203 204 204 203 210 221 224 224 226 227 226 227 228 230 231 232 234 234 233 233 237 242 242 239
258 225 221 227 226 215 222 275 249 203 199 206 207 201 203 208 208 207 208 210 206 188 196 215 191 135 134 146 148 144 148 144 134 136 136 133 119 98 93 98 110 131 154 176 187 191 193 192 190 190 193 195 196 199 201 202 203 204 205 206 207 206 204 203 204 202 206 214 220 223 226 228 228 228 229 230 231 231 233 233 230 227 230 237 242 241
258 229 225 229 235 251 312 337 330 247 210 209 208 204 202 205 207 209 213 205 196 196 197 203 214 171 144 150 160 159 151 134 123 125 119 117 118 111 112 127 142 147 152 162 177 186 193 194 191 190 192 194 197 200 201 203 205 205 206 206 205 206 206 205 204 203 204 208 215 221 225 227 229 230 230 231 232 232 232 233 230 224 223 229 236 239
263 230 225 225 231 241 254 304 312 276 241 234 220 208 202 202 205 208 213 207 198 210 202 185 203 214 153 151 168 157 137 135 144 133 99 98 118 117 106 105 169 170 157 153 168 183 189 194 193 192 194 195 197 200 201 204 206 207 208 207 205 205 206 206 205 204 203 205 213 222 225 224 226 229 229 229 230 232 233 232 230 226 223 225 230 235
277 233 234 226 226 234 233 251 283 287 277 263 236 216 206 204 205 206 210 209 203 214 214 180 192 206 185 158 158 142 135 160 164 93 48 65 67 26 26 333 271 246 154 144 161 176 182 192 195 194 197 199 198 200 202 204 206 207 207 208 207 207 206 205 205 205 204 205 213 222 224 222 224 228 229 228 228 231 234 232 230 229 226 224 225 229
262 228 278 246 234 234 225 227 254 273 267 261 263 247 221 207 203 204 207 207 204 207 203 172 175 199 202 185 150 101 80 2 353 352 325 330 333 324 302 271 281 305 328 138 165 178 180 185 190 193 200 205 205 203 204 206 207 207 207 207 208 207 205 205 206 206 207 208 212 217 221 224 226 228 231 232 231 231 233 233 231 230 228 226 224 224
269 281 309 246 239 235 221 216 228 241 257 265 258 247 227 210 202 203 205 206 205 203 197 182 178 190 190 203 252 301 273 270 282 283 285 292 292 292 293 290 291 293 290 285 255 216 191 191 204 216 218 220 218 214 213 211 208 207 208 208 207 206 205 206 206 207 208 208 210 214 220 226 229 230 233 236 235 234 234 233 233 232 231 231 229 228
301 315 259 216 223 232 219 213 218 229 245 250 233 217 215 217 212 208 206 211 213 210 204 198 199 198 188 212 240 246 249 254 262 275 279 280 290 301 300 292 290 288 286 286 284 270 236 215 219 220 220 224 224 225 226 220 213 211 210 208 206 205 206 207 207 208 209 209 210 214 219 225 230 231 233 236 236 236 235 235 235 235 234 234 233 231
313 303 273 226 222 222 205 198 215 224 225 224 215 213 217 219 220 218 215 216 217 219 225 221 215 213 212 225 233 234 243 251 262 285 294 294 298 300 297 296 295 293 298 304 290 277 272 267 252 245 254 258 250 245 238 226 219 216 211 208 207 207 207 207 207 208 210 212 212 214 218 224 229 231 233 235 235 235 236 237 238 238 237 236 234 233
301 283 270 258 244 218 169 161 209 224 230 226 216 226 232 226 225 229 231 229 222 221 227 230 230 226 226 239 237 222 233 255 273 286 293 298 301 300 298 296 295 294 291 292 301 309 306 298 288 280 279 275 267 262 251 235 225 218 211 209 208 208 208 208 208 209 212 215 215 214 217 224 228 230 231 233 234 235 236 237 239 239 237 233 232 233
283 276 249 239 260 244 184 179 205 225 256 230 206 218 251 234 221 222 228 231 229 226 226 227 228 226 222 224 225 231 266 271 274 280 285 290 292 289 287 284 282 283 287 294 315 327 307 293 295 293 284 278 273 267 258 247 233 220 215 211 209 208 209 209 209 209 212 217 218 217 219 223 227 229 230 231 233 234 236 237 237 237 235 231 227 227
255 270 251 225 235 249 225 203 196 176 176 198 190 196 232 230 220 224 230 226 224 230 234 228 229 229 214 221 239 263 282 279 279 280 280 282 281 280 285 288 278 276 300 325 322 313 306 304 304 300 291 288 286 274 259 251 240 228 219 213 211 209 208 209 212 212 212 216 219 219 218 221 226 229 230 231 233 235 235 235 235 235 234 233 226 221
227 242 249 235 226 230 230 218 209 208 209 199 185 187 209 221 215 221 242 230 215 217 218 216 234 251 259 261 264 273 289 281 275 277 286 300 313 324 337 340 333 338 358 346 326 324 321 306 296 294 295 294 289 276 261 250 240 230 222 214 211 210 207 209 212 214 214 214 217 218 218 221 226 229 231 233 235 235 234 233 234 234 235 235 230 223
211 228 241 243 231 219 220 223 220 220 222 207 185 179 186 196 177 175 217 221 198 175 188 219 241 248 254 265 267 256 256 255 253 273 10 11 1 357 356 357 359 358 349 334 330 326 306 293 296 300 303 303 296 280 264 250 235 224 220 215 211 209 210 211 211 213 213 213 214 219 221 224 228 231 234 235 235 234 234 233 234 235 237 237 235 231
199 210 218 225 226 219 220 225 222 220 238 359 164 159 156 159 161 183 195 178 109 68 76 241 255 252 269 291 278 242 241 247 259 327 360 349 341 349 354 350 345 338 332 331 322 301 294 301 309 312 315 306 282 260 254 251 235 222 218 214 211 211 213 213 211 210 212 211 212 218 224 226 229 230 232 234 235 234 235 236 236 236 237 237 234 232
195 202 209 218 222 222 223 225 222 213 162 90 114 119 125 148 170 188 189 87 26 9 20 4 331 351 2 341 319 282 275 290 304 319 330 326 324 333 337 335 334 327 323 323 311 302 306 316 315 311 311 290 268 258 255 246 230 222 218 213 213 214 215 214 212 209 210 210 210 215 222 226 227 229 231 236 239 239 237 237 235 234 234 231 227 226
192 196 205 216 222 220 218 222 225 218 107 40 85 123 130 170 173 175 324 337 330 321 353 357 344 355 357 348 344 328 314 312 311 314 319 319 319 321 320 321 323 318 315 316 315 316 322 322 314 313 315 305 294 291 279 252 229 218 216 214 215 217 216 215 213 210 209 210 210 211 216 221 225 231 235 238 239 237 234 232 229 227 227 224 221 222
206 205 206 205 216 223 219 220 222 214 37 20 15 120 101 54 48 359 340 335 336 341 348 342 339 353 352 344 344 332 316 313 313 314 316 316 316 317 315 316 319 315 312 312 314 319 321 315 313 312 309 304 290 271 268 252 229 212 208 212 213 214 215 214 213 211 210 210 210 210 212 216 221 228 233 234 233 232 232 231 226 221 221 221 220 220
235 237 221 200 198 217 215 210 213 255 13 7 355 37 39 21 10 354 340 337 345 351 352 345 337 343 345 338 336 330 317 314 315 315 313 312 314 315 315 316 318 316 314 310 310 318 320 318 321 323 324 315 275 233 196 197 218 204 193 201 203 201 206 212 212 210 209 209 209 209 210 211 215 220 224 228 229 230 231 232 228 223 223 224 222 221
210 274 285 264 260 269 254 259 325 345 349 348 344 6 12 355 343 342 340 337 341 347 352 347 335 335 338 334 328 325 320 317 318 317 313 309 310 310 309 311 312 311 311 307 306 316 319 318 327 331 336 339 303 238 189 155 153 172 187 201 201 191 187 194 200 200 200 203 205 206 206 207 209 211 214 217 220 223 224 225 223 220 220 223 224 225
267 278 299 296 291 295 285 273 277 290 304 312 315 332 342 330 322 330 336 337 339 342 343 342 335 332 332 331 327 324 323 322 320 317 312 309 308 306 304 305 305 306 307 304 302 311 312 300 309 325 334 354 354 270 195 174 151 165 196 207 207 195 188 184 186 191 193 196 200 202 202 202 205 209 211 211 213 216 218 218 218 219 220 222 225 228
243 238 249 260 264 276 276 264 258 263 288 313 313 311 309 305 310 323 329 333 337 338 336 337 335 331 327 326 323 320 319 321 322 318 314 311 308 304 303 302 298 299 302 300 297 299 293 272 280 313 347 20 34 39 144 175 148 152 202 206 211 209 203 198 195 194 194 194 195 198 199 199 202 206 210 211 212 213 215 215 216 218 220 221 224 228
255 247 251 251 247 249 257 265 276 284 290 295 294 286 285 294 311 320 323 327 330 329 329 330 331 330 326 320 316 314 312 312 312 309 307 307 302 294 294 296 295 294 294 297 304 300 272 243 265 312 54 72 74 73 81 99 106 102 153 187 192 201 203 200 192 186 186 186 186 190 195 198 201 203 207 213 215 214 215 215 216 219 222 222 224 226
279 292 265 255 253 251 250 257 270 282 285 280 272 269 277 302 322 318 315 317 318 319 323 324 324 325 323 318 313 308 305 305 304 298 295 300 298 287 288 293 288 278 277 287 316 307 237 188 162 156 134 97 88 91 86 81 85 90 83 77 90 111 151 172 168 164 167 170 172 181 187 191 199 204 206 212 217 218 218 219 219 222 226 230 231 231
255 252 249 249 250 248 244 245 254 265 272 274 275 277 288 313 321 314 312 313 312 313 317 320 319 316 314 315 314 305 295 294 296 289 281 283 280 275 287 295 273 250 240 245 290 305 189 154 140 144 134 97 85 83 78 72 71 74 76 85 96 102 109 122 130 135 146 156 163 172 174 177 193 205 206 210 217 223 227 227 223 220 222 226 230 233
249 251 249 250 251 252 253 251 250 257 275 287 290 292 297 305 306 301 300 301 304 306 309 313 316 312 308 308 310 302 288 279 277 273 270 264 249 248 262 268 195 162 148 144 138 129 131 129 124 117 108 102 99 93 86 81 76 70 71 84 99 107 110 116 125 135 149 167 173 168 159 157 173 187 192 199 209 216 226 236 239 236 233 230 229 231
Height
1462 1465 1463 1460 1457 1455 1455 1454 1455 1454 1449 1448 1450 1452 1454 1455 1451 1444 1443 1438 1438 1453 1458 1455 1458 1457 1455 1454 1450 1452 1455 1457 1459 1460 1462 1465 1469 1473 1479 1483 1487 1492 1495 1493 1494 1497 1501 1504 1506 1509 1512 1515 1518 1521 1524 1526 1529 1531 1534 1537 1538 1541 1544 1545 1548 1549 1551 1553 1554 1556 1558 1559 1561 1562 1564 1566 1568 1569 1570 1572 1572 1572 1572 1574 1574 1575
1459 1461 1454 1450 1449 1448 1449 1450 1451 1453 1450 1448 1449 1451 1450 1450 1448 1440 1441 1439 1437 1451 1456 1450 1455 1455 1451 1451 1447 1447 1451 1453 1455 1456 1459 1461 1464 1469 1476 1481 1485 1491 1494 1492 1492 1495 1498 1502 1504 1507 1509 1512 1515 1518 1521 1523 1526 1529 1532 1534 1536 1539 1542 1543 1545 1547 1548 1550 1552 1554 1556 1558 1560 1561 1562 1564 1566 1568 1569 1570 1571 1571 1571 1572 1573 1574
1458 1454 1446 1443 1443 1444 1446 1447 1450 1452 1451 1451 1451 1454 1452 1446 1445 1439 1435 1436 1438 1451 1457 1451 1455 1454 1446 1444 1442 1441 1444 1447 1450 1452 1455 1458 1460 1465 1473 1478 1483 1488 1491 1490 1489 1491 1494 1499 1502 1504 1506 1509 1512 1515 1518 1521 1524 1527 1529 1532 1534 1536 1539 1541 1543 1545 1546 1548 1551 1553 1555 1558 1560 1561 1562 1564 1565 1566 1568 1569 1569 1569 1570 1571 1572 1573
1453 1446 1440 1438 1439 1443 1446 1445 1449 1452 1452 1451 1450 1455 1454 1445 1447 1447 1438 1437 1439 1447 1453 1451 1453 1452 1446 1444 1441 1439 1438 1440 1447 1450 1451 1455 1457 1461 1469 1475 1479 1484 1486 1486 1486 1488 1491 1495 1499 1501 1503 1506 1509 1512 1515 1518 1521 1524 1526 1528 1531 1534 1536 1539 1541 1543 1545 1547 1550 1552 1555 1557 1559 1561 1562 1563 1564 1565 1566 1568 1568 1568 1569 1570 1571 1572
1442 1435 1432 1435 1437 1441 1446 1445 1447 1452 1453 1451 1448 1451 1452 1445 1444 1444 1437 1435 1438 1443 1445 1450 1458 1456 1449 1449 1445 1439 1436 1437 1443 1447 1449 1451 1454 1459 1466 1471 1476 1480 1482 1482 1482 1484 1487 1491 1495 1498 1501 1503 1506 1508 1511 1514 1517 1520 1522 1525 1528 1531 1534 1536 1539 1541 1543 1546 1548 1551 1553 1555 1557 1559 1560 1561 1562 1563 1564 1566 1566 1566 1567 1569 1570 1571
1435 1427 1427 1434 1436 1439 1444 1444 1444 1449 1452 1451 1446 1444 1446 1444 1441 1439 1437 1437 1446 1452 1444 1450 1470 1465 1448 1448 1446 1439 1438 1437 1439 1443 1446 1448 1451 1455 1461 1466 1472 1478 1480 1480 1478 1479 1483 1487 1492 1495 1498 1501 1502 1505 1507 1510 1514 1517 1520 1523 1525 1528 1531 1534 1537 1539 1541 1544 1546 1548 1550 1552 1554 1556 1557 1558 1559 1561 1562 1563 1565 1565 1566 1567 1568 1569
1428 1423 1423 1430 1435 1437 1441 1442 1439 1442 1449 1450 1441 1438 1443 1443 1442 1442 1440 1443 1455 1458 1442 1441 1464 1467 1450 1445 1443 1439 1438 1436 1436 1440 1441 1444 1448 1451 1455 1460 1466 1470 1475 1478 1477 1476 1479 1483 1487 1491 1493 1497 1499 1501 1504 1508 1511 1514 1517 1519 1522 1525 1528 1532 1534 1536 1539 1541 1543 1545 1547 1550 1551 1553 1555 1556 1557 1559 1560 1562 1564 1565 1565 1566 1567 1568
1422 1422 1423 1427 1432 1435 1439 1440 1434 1436 1448 1446 1433 1432 1440 1443 1445 1446 1444 1447 1450 1449 1442 1435 1446 1460 1456 1445 1436 1434 1437 1435 1436 1441 1440 1440 1445 1450 1452 1454 1460 1464 1468 1472 1473 1472 1475 1478 1481 1485 1488 1491 1495 1499 1502 1505 1508 1510 1513 1516 1519 1522 1525 1528 1531 1533 1536 1538 1540 1543 1545 1547 1549 1551 1553 1554 1556 1558 1560 1561 1562 1564 1564 1564 1565 1567
1416 1422 1422 1424 1431 1432 1432 1432 1429 1433 1443 1439 1428 1430 1435 1439 1443 1444 1446 1449 1445 1449 1455 1441 1436 1452 1454 1440 1431 1430 1435 1438 1440 1443 1441 1438 1442 1448 1451 1451 1454 1460 1464 1466 1467 1468 1471 1473 1476 1479 1483 1488 1493 1497 1499 1502 1505 1507 1510 1513 1516 1519 1522 1525 1528 1530 1532 1535 1537 1540 1542 1544 1547 1549 1551 1553 1554 1556 1557 1559 1560 1562 1563 1563 1563 1565
1411 1415 1415 1418 1427 1427 1424 1423 1424 1430 1436 1432 1427 1429 1431 1434 1438 1442 1447 1448 1448 1455 1460 1446 1438 1450 1452 1440 1434 1434 1435 1438 1439 1438 1437 1437 1440 1447 1451 1450 1450 1455 1459 1461 1462 1464 1467 1469 1472 1476 1480 1485 1490 1493 1496 1499 1502 1505 1506 1510 1512 1515 1519 1522 1524 1527 1529 1532 1535 1537 1539 1541 1544 1546 1549 1551 1552 1553 1555 1556 1558 1559 1561 1562 1562 1563
1404 1407 1411 1411 1416 1418 1417 1419 1420 1424 1427 1427 1429 1432 1437 1440 1440 1443 1444 1446 1456 1459 1453 1444 1437 1446 1453 1443 1432 1431 1429 1428 1430 1432 1433 1434 1438 1445 1452 1451 1447 1449 1453 1455 1459 1462 1465 1468 1472 1476 1478 1481 1486 1490 1493 1497 1499 1502 1503 1506 1509 1512 1515 1518 1521 1523 1526 1528 1531 1534 1536 1538 1541 1543 1546 1548 1550 1551 1552 1553 1555 1557 1558 1560 1560 1561
1405 1407 1408 1406 1408 1411 1414 1417 1417 1418 1421 1427 1432 1436 1446 1449 1447 1450 1449 1451 1462 1459 1445 1438 1435 1442 1451 1441 1425 1420 1416 1415 1420 1426 1430 1432 1433 1440 1448 1448 1445 1446 1449 1452 1456 1460 1464 1468 1471 1473 1476 1478 1482 1486 1490 1493 1496 1498 1500 1502 1505 1508 1511 1514 1517 1520 1522 1525 1528 1530 1533 1535 1538 1541 1543 1545 1547 1548 1549 1551 1553 1554 1556 1557 1558 1559
1409 1406 1403 1404 1405 1407 1415 1419 1418 1419 1421 1428 1432 1438 1450 1456 1458 1463 1459 1455 1458 1450 1437 1431 1435 1441 1439 1428 1419 1414 1410 1408 1410 1413 1419 1424 1425 1431 1440 1444 1444 1444 1446 1449 1452 1456 1460 1463 1466 1469 1472 1474 1477 1481 1484 1488 1491 1494 1496 1498 1501 1504 1507 1511 1514 1516 1519 1521 1524 1527 1530 1532 1535 1538 1540 1542 1544 1546 1547 1548 1550 1551 1553 1554 1556 1557
1413 1407 1400 1404 1406 1404 1410 1416 1421 1423 1423 1427 1430 1436 1447 1452 1462 1471 1461 1453 1452 1443 1431 1426 1432 1438 1431 1418 1413 1410 1406 1403 1402 1405 1411 1414 1416 1423 1432 1438 1441 1441 1443 1446 1449 1452 1455 1458 1462 1464 1467 1470 1472 1475 1478 1482 1486 1489 1491 1493 1497 1500 1504 1507 1510 1513 1515 1518 1521 1524 1527 1529 1532 1534 1536 1539 1541 1543 1544 1546 1547 1548 1550 1551 1553 1554
1414 1413 1399 1399 1402 1401 1405 1407 1409 1414 1419 1423 1420 1426 1436 1436 1446 1457 1451 1450 1448 1438 1430 1429 1432 1435 1430 1416 1402 1399 1400 1399 1400 1401 1405 1408 1410 1417 1426 1433 1437 1437 1439 1443 1445 1448 1450 1453 1457 1461 1464 1466 1468 1471 1474 1477 1481 1484 1486 1488 1492 1496 1499 1503 1506 1509 1512 1514 1518 1521 1523 1526 1528 1530 1533 1535 1537 1540 1541 1543 1544 1545 1547 1549 1550 1551
1405 1404 1388 1389 1393 1394 1403 1401 1397 1406 1418 1418 1414 1422 1429 1422 1424 1433 1432 1429 1431 1432 1430 1427 1427 1421 1413 1404 1393 1392 1395 1395 1399 1399 1399 1405 1407 1412 1420 1426 1432 1433 1435 1440 1443 1445 1447 1449 1453 1457 1460 1463 1465 1468 1471 1473 1476 1478 1481 1484 1487 1491 1495 1499 1502 1505 1508 1511 1514 1517 1519 1522 1525 1527 1529 1531 1534 1536 1538 1540 1541 1542 1544 1546 1548 1549
1399 1397 1380 1383 1390 1389 1397 1399 1393 1401 1412 1414 1417 1420 1416 1408 1413 1425 1427 1418 1421 1435 1427 1417 1421 1416 1409 1406 1396 1395 1397 1393 1397 1398 1397 1401 1405 1408 1412 1418 1427 1430 1431 1437 1441 1442 1443 1446 1449 1452 1455 1458 1461 1464 1466 1468 1470 1472 1476 1479 1483 1487 1491 1494 1498 1501 1504 1507 1510 1513 1516 1518 1521 1523 1525 1527 1530 1532 1534 1536 1537 1539 1541 1542 1545 1547
1388 1392 1377 1377 1390 1388 1388 1395 1393 1392 1397 1407 1417 1413 1406 1409 1412 1420 1431 1429 1433 1444 1428 1411 1417 1419 1421 1419 1402 1398 1403 1397 1395 1397 1396 1399 1402 1405 1408 1413 1421 1424 1426 1433 1437 1439 1440 1442 1445 1448 1451 1453 1455 1458 1461 1464 1467 1470 1472 1475 1478 1482 1485 1489 1493 1497 1500 1503 1506 1509 1511 1514 1517 1519 1522 1524 1526 1529 1531 1532 1534 1536 1537 1539 1541 1544
1379 1389 1378 1370 1384 1387 1384 1395 1400 1393 1389 1395 1401 1398 1404 1420 1423 1423 1432 1435 1438 1445 1433 1418 1415 1413 1416 1415 1402 1400 1404 1399 1394 1395 1396 1396 1398 1400 1403 1408 1414 1418 1422 1428 1433 1437 1437 1438 1441 1443 1446 1449 1451 1455 1458 1462 1466 1468 1470 1472 1475 1478 1481 1485 1489 1492 1496 1499 1502 1504 1507 1510 1513 1515 1518 1520 1523 1525 1526 1528 1530 1532 1534 1536 1538 1540
1375 1386 1381 1366 1373 1384 1388 1394 1400 1398 1393 1391 1392 1392 1398 1410 1415 1418 1424 1425 1429 1436 1433 1426 1421 1413 1403 1396 1394 1396 1397 1396 1396 1395 1395 1392 1392 1396 1399 1402 1407 1413 1418 1422 1428 1433 1434 1434 1436 1438 1442 1445 1449 1453 1456 1460 1462 1465 1468 1470 1472 1475 1478 1482 1485 1488 1491 1494 1497 1499 1502 1505 1508 1511 1514 1516 1519 1520 1522 1524 1526 1528 1530 1532 1535 1536
1376 1383 1384 1372 1372 1383 1389 1389 1388 1391 1394 1396 1398 1398 1399 1402 1404 1409 1413 1413 1418 1426 1427 1426 1423 1408 1387 1378 1383 1388 1389 1391 1392 1393 1394 1391 1388 1393 1396 1399 1405 1411 1416 1420 1424 1429 1430 1430 1432 1435 1439 1444 1448 1451 1453 1455 1458 1461 1464 1466 1469 1471 1474 1477 1480 1483 1486 1489 1492 1495 1498 1501 1504 1507 1510 1512 1514 1516 1518 1520 1522 1524 1527 1529 1531 1533
1380 1383 1382 1378 1380 1383 1382 1377 1376 1378 1383 1390 1395 1394 1396 1400 1403 1413 1419 1411 1409 1417 1418 1420 1420 1402 1379 1374 1379 1381 1383 1385 1385 1387 1391 1390 1388 1391 1395 1399 1403 1408 1414 1418 1423 1426 1428 1428 1430 1434 1438 1441 1444 1446 1449 1451 1454 1457 1459 1462 1465 1468 1470 1472 1475 1477 1480 1484 1488 1490 1493 1497 1500 1503 1506 1508 1510 1512 1514 1516 1518 1521 1523 1525 1527 1529
1381 1385 1382 1377 1378 1378 1372 1369 1371 1372 1373 1381 1387 1385 1387 1392 1397 1411 1420 1412 1409 1412 1409 1412 1418 1403 1381 1376 1378 1379 1379 1380 1382 1384 1386 1388 1389 1390 1393 1397 1401 1405 1410 1415 1419 1423 1426 1428 1430 1432 1435 1438 1441 1443 1446 1448 1450 1452 1455 1458 1461 1463 1465 1468 1471 1473 1475 1479 1482 1486 1489 1493 1496 1499 1501 1504 1506 1508 1510 1512 1515 1517 1518 1521 1523 1525
1384 1389 1387 1378 1371 1368 1366 1365 1367 1369 1371 1379 1383 1379 1381 1386 1388 1395 1400 1400 1407 1412 1409 1416 1424 1407 1384 1377 1379 1381 1381 1378 1380 1383 1385 1387 1388 1390 1393 1395 1398 1402 1407 1411 1415 1418 1422 1426 1428 1429 1432 1434 1437 1440 1442 1445 1447 1449 1452 1455 1457 1459 1461 1465 1468 1471 1472 1474 1478 1481 1485 1488 1491 1494 1496 1499 1501 1503 1506 1508 1511 1512 1514 1516 1519 1521
1388 1390 1390 1388 1383 1380 1378 1376 1376 1374 1373 1375 1377 1377 1379 1379 1382 1388 1389 1393 1404 1406 1403 1416 1423 1405 1386 1383 1383 1382 1382 1380 1379 1383 1385 1386 1388 1390 1393 1395 1398 1402 1407 1412 1415 1416 1418 1422 1423 1425 1428 1430 1433 1436 1439 1441 1444 1447 1449 1451 1453 1456 1459 1463 1466 1468 1469 1471 1474 1478 1480 1482 1485 1488 1490 1493 1496 1498 1501 1504 1506 1508 1509 1512 1515 1517
1391 1387 1388 1392 1389 1389 1391 1386 1380 1376 1374 1373 1372 1374 1378 1377 1381 1388 1392 1400 1409 1403 1399 1407 1410 1399 1390 1388 1386 1383 1383 1383 1380 1381 1384 1386 1389 1392 1394 1398 1402 1405 1409 1412 1414 1415 1416 1418 1420 1422 1424 1427 1430 1433 1436 1439 1441 1444 1446 1448 1451 1454 1457 1460 1463 1465 1466 1468 1471 1473 1475 1478 1480 1483 1485 1488 1491 1494 1497 1500 1502 1504 1505 1507 1510 1513
1393 1387 1385 1385 1380 1381 1388 1383 1371 1368 1373 1375 1372 1372 1376 1376 1378 1384 1392 1401 1403 1403 1404 1401 1396 1398 1397 1393 1390 1388 1387 1387 1383 1381 1384 1388 1391 1395 1398 1402 1405 1406 1409 1411 1412 1414 1415 1416 1419 1421 1423 1426 1429 1431 1434 1436 1438 1441 1443 1445 1448 1451 1454 1456 1458 1461 1462 1464 1466 1469 1470 1473 1476 1479 1482 1484 1487 1491 1493 1496 1498 1500 1502 1504 1505 1508
1398 1393 1387 1383 1379 1379 1384 1383 1374 1369 1370 1372 1372 1372 1374 1375 1377 1382 1390 1391 1392 1402 1410 1399 1392 1400 1400 1394 1393 1390 1387 1389 1387 1384 1386 1391 1394 1398 1401 1403 1404 1405 1408 1409 1411 1412 1414 1415 1417 1420 1422 1424 1427 1429 1431 1433 1436 1438 1440 1442 1445 1448 1450 1453 1455 1457 1459 1460 1462 1464 1466 1469 1472 1475 1478 1481 1484 1487 1489 1491 1494 1497 1499 1501 1501 1503
1401 1397 1388 1384 1383 1381 1383 1385 1380 1375 1372 1371 1369 1368 1369 1373 1376 1380 1384 1383 1385 1398 1403 1395 1395 1401 1396 1392 1392 1388 1387 1389 1388 1386 1389 1393 1397 1398 1401 1403 1403 1402 1404 1408 1410 1411 1412 1414 1416 1418 1421 1422 1425 1427 1429 1431 1433 1435 1438 1440 1442 1444 1447 1449 1451 1453 1455 1457 1458 1459 1462 1465 1468 1471 1474 1478 1480 1482 1485 1487 1490 1493 1496 1497 1498 1500
1403 1399 1389 1384 1385 1383 1384 1386 1383 1380 1379 1374 1369 1365 1365 1369 1372 1376 1379 1379 1382 1390 1390 1388 1396 1397 1390 1386 1386 1385 1386 1388 1388 1390 1393 1396 1399 1400 1402 1404 1403 1401 1401 1406 1410 1411 1411 1413 1415 1417 1419 1420 1422 1425 1426 1429 1430 1432 1435 1437 1439 1441 1443 1445 1447 1449 1451 1453 1453 1456 1459 1462 1465 1467 1470 1473 1475 1478 1480 1483 1486 1489 1491 1493 1495 1496
1405 1401 1393 1390 1391 1388 1386 1387 1386 1385 1384 1380 1375 1370 1365 1365 1368 1373 1376 1376 1381 1387 1386 1389 1400 1398 1386 1381 1382 1386 1390 1392 1393 1395 1397 1399 1401 1402 1403 1404 1403 1403 1403 1405 1409 1410 1410 1413 1414 1416 1417 1418 1420 1422 1423 1425 1427 1429 1431 1433 1435 1437 1440 1442 1443 1445 1447 1448 1450 1453 1455 1457 1460 1463 1465 1468 1471 1473 1476 1479 1481 1484 1486 1489 1491 1493
1406 1404 1399 1400 1405 1398 1388 1388 1389 1385 1385 1386 1384 1378 1370 1367 1369 1372 1372 1373 1378 1385 1389 1396 1405 1402 1389 1384 1387 1390 1392 1395 1396 1397 1398 1400 1401 1402 1403 1404 1404 1406 1406 1406 1408 1409 1410 1412 1413 1414 1416 1417 1418 1419 1421 1423 1424 1426 1427 1429 1431 1434 1437 1438 1439 1441 1443 1445 1448 1450 1451 1453 1455 1458 1460 1463 1466 1469 1471 1474 1477 1479 1481 1483 1486 1488
1410 1410 1402 1402 1410 1402 1387 1386 1389 1390 1397 1397 1385 1378 1377 1376 1375 1374 1375 1376 1378 1384 1392 1400 1402 1396 1389 1390 1393 1394 1394 1395 1396 1396 1398 1399 1400 1401 1403 1403 1404 1405 1406 1407 1408 1409 1409 1410 1411 1413 1415 1416 1417 1418 1419 1420 1421 1422 1424 1427 1429 1431 1432 1434 1435 1437 1439 1441 1444 1445 1446 1448 1450 1453 1455 1458 1461 1464 1467 1469 1471 1473 1475 1477 1480 1483
1415 1415 1405 1399 1404 1400 1387 1385 1391 1399 1405 1395 1377 1372 1378 1380 1380 1381 1382 1382 1381 1383 1388 1392 1391 1388 1389 1392 1394 1394 1394 1394 1395 1397 1398 1398 1400 1401 1401 1401 1403 1404 1405 1407 1407 1408 1408 1409 1411 1413 1414 1415 1416 1416 1417 1418 1418 1420 1422 1424 1426 1427 1428 1430 1432 1434 1435 1437 1439 1441 1442 1444 1446 1448 1451 1454 1457 1460 1462 1464 1465 1467 1470 1473 1475 1477
1418 1417 1411 1404 1402 1395 1387 1395 1409 1410 1396 1381 1373 1373 1374 1376 1379 1384 1384 1381 1380 1383 1385 1388 1389 1389 1390 1390 1391 1392 1394 1395 1397 1398 1398 1399 1400 1400 1400 1400 1401 1402 1403 1404 1405 1406 1407 1408 1410 1411 1412 1412 1413 1414 1415 1416 1416 1418 1419 1420 1422 1423 1425 1427 1429 1431 1432 1433 1435 1437 1439 1440 1442 1445 1448 1450 1453 1455 1457 1458 1460 1463 1466 1469 1471 1472
1422 1419 1414 1409 1406 1398 1393 1403 1415 1407 1386 1376 1376 1377 1377 1378 1380 1385 1388 1384 1380 1381 1383 1386 1388 1387 1388 1390 1391 1394 1396 1397 1398 1399 1399 1400 1400 1399 1400 1399 1399 1400 1400 1401 1403 1405 1405 1406 1407 1408 1409 1409 1410 1411 1412 1413 1414 1416 1416 1417 1418 1420 1422 1424 1426 1427 1429 1429 1430 1433 1434 1436 1439 1441 1444 1446 1448 1450 1452 1454 1456 1459 1462 1465 1468 1469
1423 1422 1416 1412 1409 1404 1400 1400 1400 1398 1392 1387 1384 1383 1384 1383 1381 1384 1390 1386 1379 1378 1381 1385 1388 1388 1389 1392 1393 1396 1398 1399 1400 1399 1398 1398 1398 1398 1398 1397 1396 1397 1398 1400 1402 1403 1403 1404 1404 1405 1405 1406 1407 1408 1409 1410 1412 1413 1414 1415 1416 1417 1419 1420 1421 1422 1424 1425 1427 1430 1432 1434 1435 1437 1440 1442 1443 1445 1447 1450 1453 1456 1458 1461 1463 1465
1423 1422 1420 1419 1412 1404 1404 1402 1400 1403 1402 1391 1385 1384 1383 1382 1379 1382 1390 1389 1380 1378 1382 1387 1392 1394 1394 1395 1396 1397 1400 1404 1405 1400 1397 1397 1397 1397 1398 1397 1396 1397 1398 1400 1401 1402 1402 1402 1402 1403 1403 1404 1405 1406 1406 1408 1409 1410 1411 1412 1413 1414 1415 1416 1416 1418 1420 1423 1425 1427 1429 1431 1432 1435 1437 1438 1439 1441 1444 1447 1449 1452 1454 1456 1458 1460
1424 1423 1422 1423 1416 1407 1409 1411 1406 1403 1394 1382 1380 1381 1381 1381 1380 1385 1400 1399 1385 1381 1386 1389 1392 1395 1395 1396 1397 1399 1404 1409 1406 1399 1396 1398 1399 1398 1398 1398 1397 1398 1399 1400 1401 1401 1401 1400 1400 1400 1401 1402 1402 1403 1403 1404 1405 1407 1408 1409 1410 1411 1411 1411 1413 1415 1418 1420 1422 1424 1426 1428 1430 1432 1433 1435 1437 1440 1442 1444 1446 1448 1450 1452 1454 1456
1425 1425 1424 1426 1421 1413 1414 1412 1403 1395 1388 1382 1380 1380 1382 1384 1384 1395 1411 1406 1390 1388 1393 1393 1393 1395 1396 1398 1400 1401 1404 1405 1401 1397 1398 1400 1400 1399 1399 1399 1399 1399 1400 1401 1401 1400 1399 1399 1399 1399 1400 1401 1400 1400 1401 1402 1402 1404 1405 1406 1407 1408 1408 1409 1411 1414 1416 1419 1420 1422 1423 1425 1427 1428 1430 1432 1435 1437 1439 1441 1443 1445 1446 1448 1450 1452
1424 1425 1425 1425 1421 1416 1416 1414 1403 1391 1387 1386 1385 1385 1387 1388 1393 1405 1413 1406 1398 1399 1399 1397 1397 1398 1399 1401 1401 1400 1401 1401 1399 1398 1400 1400 1400 1400 1400 1400 1400 1400 1400 1401 1400 1398 1399 1400 1399 1398 1399 1399 1398 1398 1399 1399 1400 1401 1403 1404 1405 1406 1408 1409 1411 1413 1414 1416 1418 1420 1420 1422 1424 1425 1428 1430 1432 1435 1436 1438 1440 1441 1442 1444 1447 1448
1422 1424 1425 1424 1420 1414 1413 1414 1409 1397 1390 1388 1390 1391 1392 1396 1405 1412 1411 1406 1404 1403 1401 1400 1400 1400 1400 1402 1402 1402 1402 1402 1401 1400 1400 1400 1400 1400 1400 1400 1400 1400 1400 1400 1399 1398 1399 1399 1398 1398 1398 1397 1397 1397 1397 1398 1398 1399 1400 1402 1403 1405 1408 1410 1410 1411 1412 1413 1415 1417 1418 1420 1421 1423 1425 1427 1429 1431 1433 1435 1437 1438 1440 1442 1444 1445
1418 1420 1421 1420 1419 1416 1413 1414 1415 1408 1399 1395 1394 1396 1399 1405 1412 1414 1410 1408 1407 1404 1403 1403 1401 1400 1402 1403 1403 1405 1404 1403 1403 1402 1400 1400 1399 1399 1400 1400 1400 1400 1400 1400 1400 1399 1398 1398 1397 1397 1396 1396 1396 1396 1396 1397 1397 1398 1399 1400 1402 1404 1407 1408 1409 1410 1411 1412 1413 1415 1417 1418 1419 1420 1422 1424 1426 1428 1430 1432 1434 1436 1437 1439 1441 1442
1422 1421 1417 1412 1413 1416 1414 1411 1411 1411 1406 1402 1400 1404 1408 1411 1412 1413 1411 1409 1409 1408 1407 1406 1403 1403 1404 1404 1405 1406 1405 1403 1403 1402 1401 1400 1399 1399 1399 1399 1399 1400 1399 1400 1400 1398 1397 1397 1397 1396 1396 1395 1394 1394 1395 1396 1396 1397 1398 1399 1399 1401 1404 1406 1408 1408 1409 1410 1411 1413 1415 1417 1417 1419 1420 1422 1424 1425 1427 1429 1431 1433 1434 1436 1438 1439
1424 1424 1423 1418 1415 1415 1412 1408 1410 1412 1410 1408 1407 1408 1411 1412 1412 1413 1412 1410 1410 1409 1408 1407 1407 1406 1405 1405 1406 1406 1405 1403 1402 1402 1401 1401 1399 1399 1399 1398 1399 1399 1399 1400 1399 1398 1398 1398 1397 1396 1396 1394 1393 1393 1394 1395 1396 1397 1398 1397 1397 1399 1402 1404 1405 1406 1407 1409 1410 1411 1413 1415 1416 1417 1419 1420 1422 1423 1425 1427 1429 1430 1432 1433 1435 1436
1424 1426 1428 1424 1420 1418 1413 1410 1412 1413 1412 1412 1412 1411 1413 1414 1413 1413 1413 1412 1411 1410 1409 1409 1408 1406 1405 1405 1405 1405 1405 1404 1402 1402 1401 1400 1399 1399 1399 1398 1398 1398 1398 1399 1398 1398 1398 1398 1397 1396 1396 1395 1394 1394 1394 1394 1395 1396 1396 1396 1398 1399 1400 1402 1403 1405 1406 1407 1409 1410 1412 1413 1415 1416 1418 1419 1420 1422 1424 1425 1427 1428 1430 1431 1432 1433
1423 1426 1426 1423 1422 1423 1418 1411 1409 1411 1413 1415 1417 1416 1415 1416 1415 1414 1414 1413 1412 1411 1411 1410 1409 1407 1405 1404 1403 1403 1404 1404 1403 1402 1401 1400 1400 1399 1399 1399 1398 1398 1398 1398 1398 1397 1397 1397 1397 1397 1396 1395 1395 1395 1394 1395 1395 1395 1396 1397 1398 1399 1400 1401 1402 1403 1405 1406 1407 1409 1410 1412 1413 1415 1416 1418 1419 1421 1422 1423 1425 1426 1427 1428 1430 1431
1424 1426 1425 1421 1422 1423 1419 1412 1410 1412 1414 1417 1419 1418 1416 1416 1416 1415 1415 1414 1414 1413 1412 1412 1411 1409 1407 1406 1405 1404 1403 1403 1404 1404 1402 1401 1400 1399 1399 1399 1398 1398 1398 1397 1397 1397 1397 1397 1397 1397 1396 1396 1395 1395 1395 1396 1396 1397 1397 1397 1398 1398 1399 1400 1401 1403 1404 1405 1406 1407 1409 1410 1412 1414 1415 1417 1418 1419 1421 1422 1423 1424 1425 1426 1427 1428
1427 1428 1427 1423 1422 1421 1418 1414 1414 1414 1414 1414 1416 1415 1415 1415 1416 1416 1416 1415 1415 1414 1413 1412 1412 1411 1410 1408 1407 1405 1404 1403 1403 1403 1403 1402 1401 1400 1399 1399 1398 1398 1398 1397 1397 1397 1397 1397 1397 1397 1397 1396 1395 1396 1396 1396 1397 1397 1397 1397 1398 1398 1399 1400 1401 1402 1403 1404 1406 1407 1408 1409 1411 1412 1414 1416 1417 1418 1419 1420 1422 1423 1424 1425 1425 1426
1427 1426 1425 1425 1424 1421 1417 1415 1415 1415 1412 1410 1412 1413 1414 1416 1416 1416 1416 1416 1415 1415 1414 1413 1411 1411 1410 1409 1407 1406 1405 1403 1402 1403 1403 1402 1401 1400 1399 1399 1398 1398 1398 1397 1397 1397 1397 1397 1397 1397 1397 1397 1396 1397 1397 1397 1397 1398 1398 1398 1398 1399 1399 1400 1401 1402 1403 1404 1405 1406 1407 1409 1410 1412 1413 1415 1416 1417 1418 1419 1419 1420 1422 1423 1423 1423
1424 1423 1422 1422 1420 1416 1414 1413 1414 1414 1413 1412 1413 1414 1415 1416 1417 1416 1416 1416 1416 1416 1415 1414 1412 1410 1409 1408 1407 1406 1405 1404 1402 1402 1402 1401 1401 1401 1400 1399 1399 1398 1398 1398 1398 1397 1398 1398 1398 1397 1397 1397 1398 1398 1398 1398 1399 1399 1399 1399 1399 1399 1400 1401 1402 1403 1403 1403 1404 1405 1406 1407 1409 1410 1411 1413 1414 1415 1416 1417 1418 1418 1419 1420 1420 1420